Hourly Data Report for October 08, 2014

All times are specified in Local Standard Time (LST). Add 1 hour to adjust for Daylight Saving Time where and when it is observed.

IQALUIT CLIMATE
NUNAVUT

63°44'50.000" N
68°32'40.000" W
33.50 m
2402592
71321
XFB

Download Data

Hourly Data (October 2014)
Hourly Data Report for October 8, 2014
Temp Definition
°C
Dew Point Temp Definition
°C
Rel Hum Definition
%
Wind Dir Definition
10's deg

Wind Spd Definition
km/h
Visibility Definition
km
Stn Press Definition
kPa
Hmdx Definition


Wind Chill Definition


Weather Definition


TIME
00:00 0.8 -2.0 82 12 7   101.65     LegendNANA
01:00 0.7 -2.1 81 13 8   101.61     LegendNANA
02:00 0.9 -2.3 79 10 9   101.59     LegendNANA
03:00 0.4 -1.8 85 16 4   101.57     LegendNANA
04:00 0.8 -2.2 80 12 4   101.53     LegendNANA
05:00 0.5 -2.0 83 20 2   101.49     LegendNANA
06:00 0.4 -1.8 85 15 4   101.47     LegendNANA
07:00 0.6 -1.8 84 18 3   101.46     LegendNANA
08:00 0.9 -1.5 84 14 4   101.46     LegendNANA
09:00 1.1 -1.7 82 12 10   101.46     LegendNANA
10:00 0.8 -1.2 87 15 8   101.41     LegendNANA
11:00 0.7 -0.7 91 16 3   101.38     LegendNANA
12:00 1.3 -0.6 87 18 2   101.35     LegendNANA
13:00 1.4 -0.7 86 16 4   101.33     LegendNANA
14:00 1.1 -0.3 90 25 5   101.34     LegendNANA
15:00 1.1 -0.7 88 25 3   101.33     LegendNANA
16:00 0.7 -1.1 87 25 2   101.32     LegendNANA
17:00 0.4 -1.0 90 33 5   101.31     LegendNANA
18:00 0.8 -0.9 88 8 1   101.30     LegendNANA
19:00 0.7 -1.0 89 11 2   101.27     LegendNANA
20:00 1.0 -1.3 84 10 7   101.27     LegendNANA
21:00 0.9 -1.5 84 11 8   101.26     LegendNANA
22:00 0.6 -1.1 88 13 3   101.24     LegendNANA
23:00 0.3 -1.0 91 13 7   101.21     LegendNANA

Notes on Data Quality.

Legend

  • E = Estimated
  • M = Missing
  • NA = Not Available
  • ‡ = Partner data that is not subject to review by the National Climate Archives
Date modified: